• In Österreich
  • Länderverzeichnis
  • Für 7 Tage
  • Wassertemperatur
  • Satellitenkarten
  • Wetterkarte
  • News
  • Widgets
  • user-avatar
    Anmelden

    Stündliche Wetter Dubovik

    Heute, 14 August, Dienstag

    Zeit Temperatur Niederschläge Wind Luftdruck Luftfeuchtigkeit
    00:00 +12°C° 0 mm 2 m/S 736 mmHg 96%
    01:00 +10°C° 0 mm 2 m/S 736 mmHg 97%
    02:00 +10°C° 0 mm 2 m/S 736 mmHg 98%
    03:00 +10°C° 0 mm 2 m/S 736 mmHg 98%
    04:00 +10°C° 0 mm 2 m/S 736 mmHg 98%
    05:00 +11°C° 0 mm 1 m/S 737 mmHg 98%
    06:00 +13°C° 0 mm 1 m/S 737 mmHg 90%
    07:00 +15°C° 0 mm 1 m/S 737 mmHg 83%
    08:00 +18°C° 0 mm 1 m/S 737 mmHg 73%
    09:00 +20°C° 0 mm 1 m/S 738 mmHg 66%
    10:00 +20°C° 0 mm 2 m/S 738 mmHg 59%
    11:00 +21°C° 0 mm 2 m/S 738 mmHg 52%
    12:00 +23°C° 0 mm 2 m/S 738 mmHg 49%
    13:00 +24°C° 0 mm 2 m/S 737 mmHg 47%
    14:00 +24°C° 0 mm 2 m/S 737 mmHg 45%
    15:00 +24°C° 0 mm 1 m/S 737 mmHg 49%
    16:00 +24°C° 0 mm 1 m/S 737 mmHg 53%
    17:00 +24°C° 0 mm 1 m/S 737 mmHg 57%
    18:00 +22°C° 0 mm 1 m/S 737 mmHg 64%
    19:00 +19°C° 0 mm 1 m/S 737 mmHg 71%
    20:00 +16°C° 0 mm 1 m/S 737 mmHg 79%
    21:00 +16°C° 0 mm 1 m/S 736 mmHg 82%
    22:00 +15°C° 0 mm 1 m/S 736 mmHg 86%
    23:00 +15°C° 0 mm 1 m/S 736 mmHg 90%

    Morgen, 15 August, Mittwoch

    Zeit Temperatur Niederschläge Wind Luftdruck Luftfeuchtigkeit
    00:00 +15°C° 0 mm 2 m/S 736 mmHg 92%
    01:00 +15°C° 0 mm 2 m/S 736 mmHg 94%
    02:00 +15°C° 0 mm 2 m/S 736 mmHg 96%
    03:00 +15°C° 0,1 mm 2 m/S 735 mmHg 95%
    04:00 +14°C° 0,1 mm 3 m/S 735 mmHg 94%
    05:00 +16°C° 0,1 mm 3 m/S 734 mmHg 94%
    06:00 +17°C° 0,1 mm 3 m/S 734 mmHg 90%
    07:00 +19°C° 0,1 mm 4 m/S 734 mmHg 87%
    08:00 +20°C° 0,1 mm 4 m/S 733 mmHg 83%
    09:00 +21°C° 0,7 mm 4 m/S 733 mmHg 83%
    10:00 +22°C° 0,7 mm 4 m/S 733 mmHg 83%
    11:00 +22°C° 0,7 mm 4 m/S 733 mmHg 83%
    12:00 +22°C° 0,8 mm 4 m/S 733 mmHg 84%
    13:00 +22°C° 0,8 mm 4 m/S 733 mmHg 85%
    14:00 +22°C° 0,8 mm 5 m/S 733 mmHg 86%
    15:00 +22°C° 0,4 mm 4 m/S 733 mmHg 84%
    16:00 +22°C° 0,4 mm 4 m/S 733 mmHg 83%
    17:00 +22°C° 0,4 mm 3 m/S 733 mmHg 82%
    18:00 +20°C° 0 mm 3 m/S 733 mmHg 86%
    19:00 +19°C° 0 mm 2 m/S 734 mmHg 90%
    20:00 +17°C° 0 mm 2 m/S 734 mmHg 94%
    21:00 +17°C° 0 mm 2 m/S 734 mmHg 95%
    22:00 +16°C° 0 mm 1 m/S 734 mmHg 96%
    23:00 +15°C° 0 mm 1 m/S 734 mmHg 96%

    übermorgen, 16 August, Donnerstag

    Zeit Temperatur Niederschläge Wind Luftdruck Luftfeuchtigkeit
    00:00 +15°C° 0 mm 1 m/S 734 mmHg 97%
    01:00 +15°C° 0 mm 1 m/S 735 mmHg 97%
    02:00 +14°C° 0 mm 1 m/S 735 mmHg 97%
    03:00 +14°C° 0 mm 1 m/S 735 mmHg 97%
    04:00 +14°C° 0 mm 1 m/S 735 mmHg 97%
    05:00 +14°C° 0 mm 1 m/S 736 mmHg 98%
    06:00 +15°C° 0 mm 1 m/S 736 mmHg 95%
    07:00 +16°C° 0 mm 1 m/S 737 mmHg 93%
    08:00 +18°C° 0 mm 1 m/S 737 mmHg 91%
    09:00 +19°C° 0,1 mm 1 m/S 737 mmHg 88%
    10:00 +18°C° 0,1 mm 2 m/S 738 mmHg 84%
    11:00 +19°C° 0,1 mm 2 m/S 738 mmHg 81%
    12:00 +19°C° 0,1 mm 2 m/S 738 mmHg 78%
    13:00 +19°C° 0,1 mm 2 m/S 738 mmHg 75%
    14:00 +20°C° 0,1 mm 3 m/S 739 mmHg 72%
    15:00 +20°C° 0 mm 3 m/S 739 mmHg 71%
    16:00 +20°C° 0 mm 3 m/S 739 mmHg 71%
    17:00 +20°C° 0 mm 3 m/S 739 mmHg 70%
    18:00 +18°C° 0 mm 2 m/S 740 mmHg 77%
    19:00 +17°C° 0 mm 2 m/S 740 mmHg 85%
    20:00 +15°C° 0 mm 1 m/S 740 mmHg 93%
    21:00 +14°C° 0 mm 1 m/S 741 mmHg 94%
    22:00 +14°C° 0 mm 1 m/S 741 mmHg 95%
    23:00 +13°C° 0 mm 1 m/S 741 mmHg 95%

    17 August, Freitag

    Zeit Temperatur Niederschläge Wind Luftdruck Luftfeuchtigkeit
    00:00 +13°C° 0 mm 1 m/S 741 mmHg 96%
    01:00 +13°C° 0 mm 1 m/S 742 mmHg 96%
    02:00 +12°C° 0 mm 1 m/S 742 mmHg 96%
    03:00 +12°C° 0 mm 1 m/S 742 mmHg 96%
    04:00 +12°C° 0 mm 1 m/S 742 mmHg 96%
    05:00 +11°C° 0 mm 1 m/S 742 mmHg 96%
    06:00 +14°C° 0 mm 1 m/S 743 mmHg 88%
    07:00 +16°C° 0 mm 2 m/S 743 mmHg 80%
    08:00 +18°C° 0 mm 2 m/S 743 mmHg 72%
    09:00 +19°C° 0 mm 2 m/S 743 mmHg 66%
    10:00 +21°C° 0 mm 2 m/S 743 mmHg 59%
    11:00 +23°C° 0 mm 2 m/S 743 mmHg 53%
    12:00 +23°C° 0 mm 2 m/S 743 mmHg 51%
    13:00 +24°C° 0 mm 2 m/S 743 mmHg 50%
    14:00 +24°C° 0 mm 2 m/S 743 mmHg 49%
    15:00 +24°C° 0 mm 2 m/S 742 mmHg 53%
    16:00 +24°C° 0 mm 2 m/S 742 mmHg 57%
    17:00 +23°C° 0 mm 2 m/S 742 mmHg 61%
    18:00 +20°C° 0 mm 2 m/S 742 mmHg 68%
    19:00 +18°C° 0 mm 2 m/S 742 mmHg 75%
    20:00 +16°C° 0 mm 1 m/S 742 mmHg 82%
    21:00 +15°C° 0 mm 1 m/S 742 mmHg 84%
    22:00 +14°C° 0 mm 2 m/S 742 mmHg 85%
    23:00 +14°C° 0 mm 2 m/S 742 mmHg 87%

    18 August, Samstag

    Zeit Temperatur Niederschläge Wind Luftdruck Luftfeuchtigkeit
    00:00 +13°C° 0 mm 2 m/S 742 mmHg 89%
    01:00 +13°C° 0 mm 2 m/S 742 mmHg 90%
    02:00 +13°C° 0 mm 1 m/S 742 mmHg 91%
    03:00 +12°C° 0 mm 1 m/S 742 mmHg 92%
    04:00 +12°C° 0 mm 1 m/S 742 mmHg 93%
    05:00 +12°C° 0 mm 1 m/S 742 mmHg 93%
    06:00 +14°C° 0 mm 2 m/S 742 mmHg 86%
    07:00 +16°C° 0 mm 2 m/S 742 mmHg 78%
    08:00 +18°C° 0 mm 2 m/S 743 mmHg 70%
    09:00 +20°C° 0 mm 2 m/S 742 mmHg 65%
    10:00 +22°C° 0 mm 3 m/S 742 mmHg 59%
    11:00 +24°C° 0 mm 3 m/S 742 mmHg 54%
    12:00 +25°C° 0 mm 3 m/S 742 mmHg 53%
    13:00 +25°C° 0 mm 3 m/S 742 mmHg 53%
    14:00 +26°C° 0 mm 3 m/S 741 mmHg 52%
    15:00 +26°C° 0 mm 3 m/S 741 mmHg 56%
    16:00 +25°C° 0 mm 2 m/S 741 mmHg 60%
    17:00 +25°C° 0 mm 2 m/S 741 mmHg 63%
    18:00 +23°C° 0 mm 2 m/S 740 mmHg 71%
    19:00 +20°C° 0 mm 2 m/S 740 mmHg 78%
    20:00 +18°C° 0 mm 2 m/S 740 mmHg 86%
    21:00 +17°C° 0 mm 2 m/S 740 mmHg 87%
    22:00 +17°C° 0 mm 2 m/S 740 mmHg 88%
    23:00 +16°C° 0 mm 2 m/S 740 mmHg 90%

    19 August, Sonntag

    Zeit Temperatur Niederschläge Wind Luftdruck Luftfeuchtigkeit
    00:00 +16°C° 0 mm 2 m/S 740 mmHg 91%
    01:00 +16°C° 0 mm 2 m/S 739 mmHg 92%
    02:00 +15°C° 0 mm 2 m/S 739 mmHg 93%
    03:00 +15°C° 0,1 mm 2 m/S 739 mmHg 94%
    04:00 +15°C° 0,1 mm 2 m/S 739 mmHg 95%
    05:00 +15°C° 0,1 mm 2 m/S 739 mmHg 96%
    06:00 +16°C° 0 mm 2 m/S 739 mmHg 92%
    07:00 +17°C° 0 mm 2 m/S 739 mmHg 88%
    08:00 +19°C° 0 mm 2 m/S 739 mmHg 84%
    09:00 +20°C° 0,1 mm 2 m/S 738 mmHg 83%
    10:00 +20°C° 0,1 mm 2 m/S 738 mmHg 82%
    11:00 +21°C° 0,1 mm 2 m/S 738 mmHg 81%
    12:00 +23°C° 0,1 mm 2 m/S 738 mmHg 78%
    13:00 +24°C° 0,1 mm 2 m/S 738 mmHg 74%
    14:00 +24°C° 0,1 mm 3 m/S 738 mmHg 71%
    15:00 +24°C° 0,6 mm 2 m/S 737 mmHg 76%
    16:00 +24°C° 0,6 mm 2 m/S 737 mmHg 80%
    17:00 +23°C° 0,6 mm 2 m/S 737 mmHg 85%
    18:00 +21°C° 0,3 mm 2 m/S 737 mmHg 88%
    19:00 +19°C° 0,3 mm 2 m/S 737 mmHg 91%
    20:00 +19°C° 0,3 mm 1 m/S 737 mmHg 94%
    21:00 +18°C° 0 mm 1 m/S 737 mmHg 94%
    22:00 +16°C° 0 mm 1 m/S 737 mmHg 94%
    23:00 +15°C° 0 mm 2 m/S 737 mmHg 94%
    Mehr zeigen